Location: Four Corners
(38.2757°N, 122.4608°W)
Time: 22:10:41
(UTC+00:00)

ISS - Visible Passes

Search period start: 26 February 2021 00:00
Search period end: 08 March 2021 00:00
Orbit: 417 x 422 km, 51.6° (Epoch: 27 February)

Date Brightness Start Highest point End Pass type
(mag) Time Alt. Az. Time Alt. Az. Time Alt. Az.
26 Feb -0.6 12:22:33 12° NE 12:22:33 12° NE 12:22:50 10° NE visible
26 Feb -1.3 13:56:20 10° NNW 13:57:17 11° NNW 13:58:15 10° N visible
27 Feb -1.3 13:09:57 13° N 13:09:57 13° N 13:11:19 10° NNE visible
04 Mar -1.1 14:03:05 10° N 14:04:42 13° NNE 14:06:19 10° NE visible
05 Mar -0.9 13:16:12 10° N 13:16:54 10° NNE 13:17:37 10° NNE visible
06 Mar -1.6 14:04:10 10° NNW 14:06:52 22° NNE 14:09:35 10° E visible
07 Mar -1.2 13:16:54 10° NNW 13:19:09 16° NNE 13:21:23 10° ENE visible
